Location: Cartignies
(50.0929°N, 3.8447°E)
Time: 13:56:30
(UTC+00:00)

Cosmos 1331 Rocket - Pass Details

Date: 12 January 2026
Orbit: 745 x 773 km, 74.0° (Epoch: 16 February)

Event Time Altitude Azimuth Distance (km) Brightness Sun altitude
Rises 18:48:56 0° 209° (SSW) 3,176 7.6 -25.2°
Reaches altitude 10° 18:51:18 10° 212° (SSW) 2,256 6.8 -25.6°
Maximum altitude 18:56:23 69° 296° (WNW) 801 4.1 -26.4°
Enters shadow 18:57:30 52° 356° (N) 927 4.3 -26.6°
